Location: Peebles
(55.6412°N, 3.1714°W)
Time: 13:33:36
(UTC+00:00)

RS-15 - Pass Details

Date: 07 December 2023
Orbit: 1893 x 2151 km, 64.8° (Epoch: 02 March)

Event Time Altitude Azimuth Distance (km) Brightness Sun altitude
Rises 18:00:13 0° 150° (SSE) 5,650 10.3 -18.0°
Reaches altitude 10° 18:05:06 10° 135° (SE) 4,630 9.7 -18.7°
Enters shadow 18:10:44 19° 107° (ESE) 3,916 9.1 -19.4°
